Hourly Weather Roundup
Issued by NWS Central Illinois

Home | Current Version | Previous Version | Text Only | Print | Product List | Glossary On
Versions: 1 2 3 4 5 6 7 8 9 10 11 12 13 14 15 16 17 18 19 20 21 22 23 24 25 26 27 28 29 30 31 32 33 34 35 36 37 38 39 40 41 42 43 44 45 46 47 48 49 50
000
NZUS43 KILX 312310
HWRILX

AREA WEATHER ROUNDUP
NATIONAL WEATHER SERVICE, LINCOLN IL
600 PM CDT THU JUL 31 2014


CITY           SKY/WX    TMP DP  RH WIND       PRES   REMARKS
BLOOMINGTON    PTSUNNY   78  58  50 SW7       30.07F
CHAMPAIGN      SUNNY     79  58  48 W3        30.07S HX  80
DECATUR        PTSUNNY   79  61  53 NE5       30.06F HX  80
FLORA          SUNNY     79  60  50 SE5       30.06S HX  80
GALESBURG      MOSUNNY   77  64  64 CALM      30.06S
JACKSONVILLE   SUNNY     82  62  51 CALM      30.07S HX  82
LACON          SUNNY     81  59  47 W5        30.03F HX  81
LAWRENCEVILLE  SUNNY     81  61  50 W6        30.06S HX  82
LITCHFIELD     SUNNY     81  58  45 CALM      30.05F HX  81
$$


CITY           SKY/WX    TMP DP  RH WIND       PRES   REMARKS
LINCOLN        SUNNY     82  57  43 CALM      30.02F HX  82
MACOMB         SUNNY     78  60  54 W5        30.08S HX  80
MATTOON        SUNNY     80  60  50 N3        30.05F HX  81
MT CARMEL AP   MOSUNNY   82  61  47 NW3       30.06S HX  83
OLNEY-NOBLE AP MOSUNNY   77  64  65 CALM      30.06S
PARIS          SUNNY     79  63  56 CALM      30.07S HX  81
PEORIA         SUNNY     82  59  45 SW7       30.05F HX  82
PONTIAC        SUNNY     81  63  54 SW3       30.05S HX  82
RANTOUL        SUNNY     80  59  50 W3        30.07F HX  80
ROBINSON       SUNNY     80  64  58 CALM      30.07S HX  82
SPRINGFIELD    MOSUNNY   83  61  47 NW5       30.06S HX  83
TAYLORVILLE    SUNNY     79  57  47 CALM      30.05F HX  80
$$

...REGIONAL REPORTS...


CITY           SKY/WX    TMP DP  RH WIND       PRES   REMARKS
CHICAGO O`HARE MOSUNNY   82  53  36 W13       30.01S HX  81
KANKAKEE       PTSUNNY   79  63  57 SW6       30.05S HX  80
MOLINE         MOSUNNY   82  60  47 W7        30.03F HX  82
MOUNT VERNON   PTSUNNY   84  55  37 S5        30.06F HX  83
PITTSFIELD     MOSUNNY   81  61  51 NE3       30.07S HX  81
QUINCY         SUNNY     79  57  46 NW6       30.06S HX  80
ROCKFORD       MOSUNNY   80  58  46 W13       30.03F HX  80
$$


CITY           SKY/WX    TMP DP  RH WIND       PRES   REMARKS
BURLINGTON     SUNNY     79  61  53 W7        30.05S HX  80
CEDAR RAPIDS   CLOUDY    78  62  57 W6        30.03F HX  80
DES MOINES     PTSUNNY   80  56  43 W7        30.04S HX  80
KIRKSVILLE     SUNNY     82  54  37 W5        30.07S HX  81
OTTUMWA        SUNNY     80  58  46 W3        30.05F HX  80
ST LOUIS       MOSUNNY   84  58  40 E5        30.05S HX  83
$$


CITY           SKY/WX    TMP DP  RH WIND       PRES   REMARKS
TERRE HAUTE    CLOUDY    82  60  47 W5        30.06S HX  82
EVANSVILLE     PTSUNNY   83  57  41 NW5       30.06S HX  82
INDIANAPOLIS   MOSUNNY   78  57  48 W7        30.07S
LAFAYETTE      SUNNY     78  61  55 SW5       30.05F HX  80
MADISON        MOSUNNY   81  57  43 NW8       30.01S HX  81
MILWAUKEE      PTSUNNY   81  55  40 W14       29.99S HX  81
$$




USA.gov is the U.S. government's official web portal to all federal, state and local government web resources and services.